Location: La Corbi�re
(47.5759°N, 1.4257°W)
Time: 00:41:50
(UTC+00:00)

Daily predictions for brighter satellites

Satellite Brightness Start Highest point End
(mag) Time Altitude Azimuth Time Altitude Azimuth Time Altitude Azimuth
USA 215 4.4 03:21:32 10° E 03:25:43 36° ENE 03:25:43 36° ENE
Cosmos 1943 Rocket 3.1 04:06:38 44° E 04:06:38 44° E 04:11:37 10° NE
CZ-2C R/B 4.5 04:05:10 10° ESE 04:09:44 28° ENE 04:13:24 14° NNE
CENTAUR R/B 2.7 04:16:08 63° SE 04:16:12 63° ESE 04:23:08 10° NE
Cosmos 2297 4.1 04:21:07 59° ESE 04:21:07 59° ESE 04:26:44 10° NNE
NOSS 3-2 (A) 3.4 04:27:49 71° NE 04:27:49 71° NE 04:33:38 10° NE
Cosmos 2278 Rocket 4.1 04:33:50 18° N 04:33:50 18° N 04:35:31 10° NNE
NOSS 3-2 (C) 3.7 04:33:35 50° SSE 04:34:46 60° ESE 04:41:03 10° NE
Envisat 4.5 04:31:05 10° NNE 04:35:44 35° E 04:40:22 10° SSE
Meteor 2-3 Rocket 3.9 04:36:37 10° S 04:42:14 72° E 04:47:58 10° NNE
Cosmos 968 Rocket 3.9 04:42:38 27° S 04:45:20 58° ESE 04:50:22 10° NNE
Cosmos 921 Rocket 3.5 04:50:35 60° ENE 04:50:35 60° ENE 04:54:51 10° SSE
Meteor 1-26 Rocket 4.2 04:53:50 33° NNW 04:56:44 88° W 05:02:31 10° S
Cosmos 1812 3.6 04:56:57 47° ENE 04:57:05 47° ENE 05:00:48 10° SSE
USA 238 DEB 3.5 05:00:10 41° SW 05:02:44 85° NW 05:09:41 10° NE
USA 238 3.5 05:00:14 40° SW 05:02:50 86° NW 05:09:47 10° NE
Cosmos 1151 Rocket 3.7 05:01:35 25° N 05:03:56 54° ENE 05:08:14 10° SSE
Cosmos 2344 3.5 05:03:34 46° W 05:05:39 61° NW 05:13:36 10° NE
Cosmos 1816 Rocket 4.5 05:07:03 29° SW 05:10:12 56° WNW 05:16:25 10° N
USA 215 3.2 05:03:48 10° ESE 05:10:21 89° NNE 05:13:03 39° NW
Kosmos-917 4.2 05:12:30 53° NNE 05:12:30 53° NNE 05:16:20 10° NE
Cosmos 1782 4.2 05:15:55 26° S 05:15:55 26° S 05:17:45 10° S
Meteor 1-31 Rocket 3.4 05:10:26 10° NNE 05:14:16 55° E 05:18:06 10° S
Cosmos 2279 Rocket 4.3 05:08:22 10° N 05:14:33 67° ENE 05:20:42 10° SSE
Cosmos 1328 Rocket 4.3 05:12:41 12° N 05:16:37 52° ENE 05:20:52 10° SSE
SJ-12 3.8 05:15:34 10° NNE 05:19:44 88° ESE 05:23:52 10° SSW
FALCON 9 DEB 3.6 05:21:07 53° NE 05:21:07 53° NE 05:23:49 10° ENE
Cosmos 2369 Rocket 2.3 05:15:08 10° SSW 05:20:42 77° ESE 05:26:19 10° NNE
Cosmos 1862 3.9 05:18:56 10° S 05:22:48 56° E 05:26:41 10° NNE
COSMO-SKYMED 1 2.4 05:19:58 10° S 05:24:18 77° WSW 05:25:48 40° NNW
H-2A R/B 2.5 05:24:00 10° N 05:27:43 74° WNW 05:31:26 10° SSW
Cosmos 1634 Rocket 3.9 05:23:25 10° NNW 05:29:38 64° W 05:35:46 10° S
Cosmos 1867 4.5 05:30:57 30° WSW 05:30:57 30° WSW 05:35:15 10° S
Cosmos 836 Rocket 4.4 05:27:51 27° NNW 05:30:48 80° WSW 05:36:01 10° SSE
Tsikada Rocket 4.2 05:32:09 10° SW 05:38:03 44° WNW 05:44:04 10° N
CZ-4B R/B 4.2 05:38:17 10° ESE 05:40:28 17° ENE 05:42:39 10° NNE
MOS 1-B Rocket 4.2 05:34:36 10° S 05:40:39 46° W 05:44:44 18° NNW
Cosmos 1656 Rocket 3.6 05:38:58 10° SSW 05:44:22 85° ESE 05:49:51 10° NNE
SAR-Lupe-3 4.5 05:41:19 10° N 05:44:52 60° WNW 05:48:24 10° SSW
Cosmos 1503 Rocket 4.4 05:39:42 10° S 05:44:55 68° ESE 05:50:14 10° NNE
CZ-4C R/B 2.5 05:42:07 10° S 05:45:15 75° WSW 05:46:01 47° NNW
DMSP B5D2-2 4.3 05:40:34 10° SSE 05:45:45 70° ENE 05:50:57 10° N
Cosmos 2227 Rocket 4.5 05:46:14 10° N 05:49:32 15° NE 05:52:49 10° ENE
CZ-2C R/B 2.8 05:44:28 10° S 05:49:47 49° W 05:54:54 11° NNW
Cosmos 1943 Rocket 2.8 05:48:15 28° W 05:50:08 35° NW 05:55:18 10° NNE
Cosmos 1486 Rocket 3.9 05:47:18 10° SSW 05:52:34 66° WNW 05:57:51 10° NNE
SL-8 R/B 3.7 05:54:21 29° W 05:56:46 71° SSW 06:01:32 10° ESE
FALCON 9 DEB 3.6 05:56:51 32° NNW 05:56:56 32° NNW 05:59:35 10° NE
Cosmos 1515 Rocket 3.7 05:52:35 10° N 05:56:59 75° E 06:01:19 10° SSE
Meteor 2-15 4.4 05:52:10 10° N 05:58:16 88° W 06:04:19 10° S
Cosmos 2180 Rocket 4.4 05:53:43 10° NNW 05:59:54 75° W 06:06:00 10° S
Meteor 1-27 Rocket 4.1 05:54:19 10° N 05:59:56 68° ENE 06:05:38 10° SSE
Iridium 2 4.2 05:58:32 10° SW 06:02:01 34° W 06:05:30 10° NNW
FALCON 9 DEB 3.8 06:03:16 27° NNW 06:03:36 28° N 06:06:08 10° NE
Cosmos 773 Rocket 4.1 05:58:58 10° NNW 06:04:14 81° ENE 06:09:26 10° SSE
FALCON 9 DEB 3.9 06:05:15 26° NNW 06:05:41 27° N 06:08:11 10° NE
SJ 16-02 2.8 06:02:14 10° S 06:06:19 40° ESE 06:10:26 10° NE
CENTAUR R/B 3.2 06:03:21 20° W 06:07:20 39° NNW 06:14:17 10° NE
NOAA 11 4.1 06:03:09 10° NNE 06:08:39 82° WNW 06:14:08 10° SSW
Alouette 2 Rocket 4.2 06:06:27 10° N 06:10:20 47° ENE 06:13:46 10° SSE
Meteor 2-19 Rocket 4.5 06:06:50 10° S 06:12:53 88° E 06:19:00 10° N
NOAA 12 4.3 06:08:31 10° NNE 06:13:49 74° ESE 06:19:03 10° S
Cosmos 1340 Rocket 3.8 06:10:51 10° S 06:14:40 50° E 06:18:33 10° NNE
Envisat 3.6 06:10:10 10° N 06:14:44 34° WNW 06:19:17 10° SW
Cosmos 2278 Rocket 4.2 06:15:42 10° NNW 06:16:16 10° NNW 06:16:50 10° NNW
SL-27 R/B 2.4 06:14:04 11° NNW 06:17:31 89° ENE 06:21:05 10° SSE
Cosmos 1500 Rocket 4.1 06:13:42 10° S 06:18:06 64° E 06:22:33 10° NNE
NOSS 3-2 (A) 4.4 06:15:14 18° WNW 06:18:50 30° NNW 06:24:49 10° NE
Cosmos 1939 Rocket 3.1 06:16:24 10° NNE 06:20:22 72° ESE 06:24:14 10° S
FALCON 9 DEB 3.9 06:21:30 21° NW 06:22:40 28° N 06:25:15 10° NE
Cosmos 2098 Rocket 3.9 06:19:27 10° SW 06:22:56 28° WNW 06:27:11 10° N
NOSS 3-2 (C) 4.0 06:21:05 12° W 06:26:01 37° NNW 06:32:17 10° NE
Okean O Rocket 4.5 06:27:14 10° NE 06:30:38 21° E 06:33:59 10° SE
Okean 3 Rocket 4.3 06:27:26 10° SW 06:31:29 32° WNW 06:35:35 10° N
Sich 1 4.5 06:27:38 10° SSE 06:31:38 40° E 06:35:39 10° NNE
Cosmos 1812 4.4 06:32:03 14° WNW 06:32:25 14° W 06:34:31 10° WSW
H-2A R/B 2.1 06:28:13 10° S 06:32:25 62° WSW 06:36:46 10° NNW
ATLAS 3B R/B 3.6 06:27:58 10° SSW 06:34:15 53° ESE 06:40:52 10° NE
Cosmos 1174 4.3 06:34:50 10° SSW 06:37:42 46° ESE 06:40:42 10° NE
ATLAS 5 CENTAUR R/B 2.3 06:34:24 10° SSW 06:38:07 52° SE 06:42:18 10° NE
ADEOS 3.9 06:33:58 10° N 06:38:52 41° WNW 06:43:44 10° SW
Cosmos 158 Rocket 4.2 06:34:29 10° NNW 06:39:36 74° ENE 06:44:50 10° SSE
Cosmos 1354 Rocket 4.2 06:40:03 10° SW 06:45:09 49° WNW 06:50:19 10° NNE
Cosmos 1515 3.6 06:41:40 10° NNW 06:45:29 81° W 06:49:16 10° S
Meteor PRIRODA 4.2 06:42:59 10° N 06:46:16 33° WNW 06:49:33 10° SW
Okean 1 4.0 06:42:31 10° N 06:46:26 57° ENE 06:50:19 10° SSE
CZ-2C R/B 3.2 06:42:38 10° N 06:47:16 47° WNW 06:52:03 10° SW
Meteor 1-31 Rocket 4.4 06:45:56 10° NNW 06:48:14 15° WNW 06:50:32 10° W
NOSS 2 (A) 4.1 06:50:16 10° NW 06:53:05 83° SW 06:55:33 10° SE
USA 215 4.2 06:48:13 10° S 06:53:52 31° SW 06:59:33 10° WNW
FALCON 9 DEB 4.0 06:54:25 10° WNW 06:57:31 32° N 07:00:38 10° ENE
Cosmos 2297 Rocket 3.1 06:53:57 10° NNW 06:59:26 48° NE 07:04:55 10° SE
SMAP 3.1 06:55:56 10° N 07:00:31 59° WNW 07:05:05 10° SSW
FengYun 1-2 T 4.3 06:58:21 10° N 07:03:43 56° WNW 07:09:03 10° SW
Cosmos 2369 Rocket 3.3 07:01:00 10° W 07:05:21 23° NW 07:09:47 10° N
